Simultaneous Nadir Overpasses (SNOs) Predictions

Prediction of SNOs between LANDSAT-8 and METOP-B Satellite Orbit:

Table of predicted SNOs for the next 14.0 days since TLE Epoch: 7/14/2018
Index Date (LANDSAT-8) Time (LANDSAT-8) Lat,Lon (LANDSAT-8) SZA (LANDSAT-8 ) Date (METOP-B) Time (METOP-B) Lat,Lon (METOP-B) SZA (METOP-B ) Distance(km) Time Diff (sec)
1 07/15/2018 02:27:40 81.23,-175.31 61.84 07/15/2018 02:27:29 81.23,-175.27 61.84 0.76 11
2 07/15/2018 03:17:06 -81.24, -7.38 118.12 07/15/2018 03:18:08 -81.24, -7.39 118.09 0.22 62
3 07/17/2018 22:01:55 81.23,-108.73 62.31 07/17/2018 22:01:47 81.24,-108.56 62.33 3.02 8
4 07/17/2018 22:51:21 -81.25, 59.23 117.64 07/17/2018 22:52:26 -81.25, 59.35 117.59 2.11 65
5 07/20/2018 17:36:11 81.24, -42.18 62.84 07/20/2018 17:36:07 81.24, -42.24 62.82 1.17 4
6 07/20/2018 18:25:38 -81.24, 125.43 117.17 07/20/2018 18:26:47 -81.24, 125.30 117.15 2.13 69
7 07/23/2018 12:21:23 -80.69,-151.11 117.81 07/23/2018 12:20:09 -80.90,-151.76 117.73 25.50 74
8 07/23/2018 13:10:27 81.25, 24.34 63.40 07/23/2018 13:10:26 81.24, 24.44 63.41 1.68 1
9 07/23/2018 13:59:54 -81.24,-168.03 116.60 07/23/2018 14:01:06 -81.25,-167.99 116.56 0.73 72
10 07/26/2018 07:55:17 -81.23, -77.20 116.06 07/26/2018 07:54:06 -81.22, -77.31 116.11 2.01 71
11 07/26/2018 08:44:43 81.23, 90.46 63.95 07/26/2018 08:44:46 81.23, 90.33 63.94 2.21 3




NCC Satellite Simultaneous Nadir Overpasses (SNOs) Prediction Service
